Texarkana, AR

4:03 PM CST on February 12, 2016 (GMT -0600)
Texarkana Regional-Webb

Weather History for KTXK - August, 2014

Change the Weather History Date:

Friday, August 8, 2014

  Actual Average Record
Temperature  
Mean Temperature 83 °F 83 °F  
Max Temperature 95 °F 94 °F 110 °F (1936)
Min Temperature 71 °F 72 °F 58 °F (1990)
Degree Days  
Heating Degree Days 0 0  
Month to date heating degree days 0 0  
Since 1 June heating degree days 0 0  
Since 1 July heating degree days 0 0  
Cooling Degree Days 18 18  
Month to date cooling degree days 116 144  
Year to date cooling degree days 1257 1404  
Since 1 June cooling degree days 963 1084  
Growing Degree Days 34 (Base 50)    
Moisture  
Dew Point 74 °F    
Average Humidity 73    
Maximum Humidity 94    
Minimum Humidity 52    
Precipitation  
Precipitation 1.23 in 0.09 in 1.84 in (1942)
Month to date precipitation 1.29 0.76  
Year to date precipitation 23.89 29.27  
Snow  
Snow 0.00 in - - ()
Month to date snowfall 0.0  
Since 1 June snowfall 0.0  
Since 1 July snowfall 0.0  
Snow Depth 0.00 in    
Sea Level Pressure  
Sea Level Pressure 29.93 in    
Wind  
Wind Speed 8 mph (SSW)    
Max Wind Speed 23 mph    
Max Gust Speed 31 mph    
Visibility 8 miles    
Events Rain , Thunderstorm    
T = Trace of Precipitation, MM = Missing Value Source: NWS Daily Summary

Daily Weather History Graph

Daily Weather History Graph

Search for Another Location

Airport or City:

Trip Planner

Search our weather history database for the weather conditions in past years. The results will help you decide how hot, cold, wet, or windy it might be!

Date:

Astronomy

Aug. 08, 2014 Rise Set
Actual Time 6:33 AM CDT 8:09 PM CDT
Civil Twilight 6:06 AM CDT 8:35 PM CDT
Nautical Twilight 5:34 AM CDT 9:07 PM CDT
Astronomical Twilight 5:00 AM CDT 9:41 PM CDT
Moon 6:20 PM CDT (8/8) 4:08 AM CDT (8/8)
Length of Visible Light 14h 29m
Length of Day
13h 35m
Waxing Gibbous, 94% of the Moon is Illuminated
Aug 8
Waxing Gibbous
Aug 10
Full
Aug 17
Last Quarter
Aug 25
New
Sep 2
First Quarter

Hourly Weather History & Observations

Time (CDT) Temp. Heat Index Dew Point Humidity Pressure Visibility Wind Dir Wind Speed Gust Speed Precip Events Conditions
12:53 AM 82.0 °F 88.6 °F 75.0 °F 79% 29.88 in 10.0 mi South 8.1 mph - N/A   Overcast
1:53 AM 81.0 °F 86.2 °F 73.9 °F 79% 29.88 in 10.0 mi South 5.8 mph - N/A   Mostly Cloudy
2:53 AM 79.0 °F - 75.0 °F 88% 29.89 in 9.0 mi South 5.8 mph - N/A   Scattered Clouds
3:53 AM 79.0 °F - 75.0 °F 88% 29.89 in 8.0 mi SSW 8.1 mph - N/A   Mostly Cloudy
4:53 AM 78.1 °F - 75.0 °F 90% 29.90 in 8.0 mi SSW 8.1 mph - N/A   Clear
5:53 AM 78.1 °F - 75.0 °F 90% 29.91 in 7.0 mi SSE 4.6 mph - N/A   Mostly Cloudy
6:53 AM 77.0 °F - 75.0 °F 94% 29.92 in 5.0 mi South 4.6 mph - N/A   Scattered Clouds
7:53 AM 78.1 °F - 75.9 °F 93% 29.94 in 6.0 mi South 6.9 mph - N/A   Partly Cloudy
8:17 AM 78.8 °F - 75.2 °F 89% 29.96 in 6.0 mi SSW 8.1 mph - N/A   Scattered Clouds
8:53 AM 80.1 °F 85.4 °F 75.9 °F 87% 29.96 in 7.0 mi Variable 6.9 mph - N/A   Mostly Cloudy
9:53 AM 82.0 °F 88.6 °F 75.0 °F 79% 29.95 in 10.0 mi SW 9.2 mph - N/A   Mostly Cloudy
10:53 AM 86.0 °F 93.8 °F 73.9 °F 67% 29.95 in 10.0 mi SW 9.2 mph 17.3 mph N/A   Partly Cloudy
11:53 AM 90.0 °F 97.9 °F 73.0 °F 57% 29.93 in 10.0 mi SW 12.7 mph - N/A   Clear
12:53 PM 91.0 °F 100.4 °F 73.9 °F 57% 29.94 in 10.0 mi SSW 8.1 mph - N/A   Partly Cloudy
1:53 PM 93.0 °F 101.9 °F 73.0 °F 52% 29.92 in 10.0 mi WSW 11.5 mph - N/A   Clear
2:53 PM 93.9 °F 105.4 °F 75.0 °F 54% 29.91 in 10.0 mi SW 10.4 mph - N/A   Partly Cloudy
3:53 PM 95.0 °F 108.2 °F 75.9 °F 54% 29.89 in 10.0 mi South 8.1 mph - N/A   Scattered Clouds
4:53 PM 93.9 °F 104.0 °F 73.9 °F 52% 29.86 in 10.0 mi South 11.5 mph - N/A   Partly Cloudy
5:53 PM 93.0 °F 101.9 °F 73.0 °F 52% 29.84 in 10.0 mi SSW 12.7 mph 20.7 mph N/A   Clear
6:53 PM 91.0 °F 98.2 °F 72.0 °F 53% 29.88 in 10.0 mi SSW 6.9 mph - N/A   Clear
7:53 PM 89.1 °F 99.1 °F 75.0 °F 63% 29.89 in 10.0 mi South 4.6 mph - N/A   Partly Cloudy
8:53 PM 84.0 °F 92.6 °F 75.9 °F 76% 29.91 in 10.0 mi Calm Calm - N/A   Clear
9:12 PM 82.4 °F 87.2 °F 71.6 °F 70% 29.96 in 10.0 mi NE 17.3 mph 31.1 mph N/A   Mostly Cloudy
9:53 PM 78.1 °F - 66.9 °F 68% 29.99 in 10.0 mi NE 9.2 mph - N/A   Mostly Cloudy
10:53 PM 77.0 °F - 66.9 °F 71% 30.03 in 10.0 mi North 8.1 mph - N/A   Overcast
11:29 PM 73.4 °F - 69.8 °F 88% 30.05 in 2.5 mi North 9.2 mph - 0.08 in Rain , Thunderstorm Heavy Rain
11:40 PM 71.6 °F - 69.8 °F 94% 30.06 in 1.2 mi NW 15.0 mph 19.6 mph 0.28 in Rain , Thunderstorm Heavy Thunderstorms and Rain